Location: Zagreb
(45.8000°N, 16.0000°E)
Time: 15:06:16
(UTC+02:00)

Vanguard 1 - Pass Details

Date: 17 August 2022
Orbit: 649 x 3832 km, 34.2° (Epoch: 25 September)

Event Time Altitude Azimuth Distance (km) Brightness Sun altitude
Rises 08:04:29 0° 272° (W) 6,475 13.6 20.7°
Reaches altitude 10° 08:08:24 10° 268° (W) 5,805 13.5 21.4°
Maximum altitude 08:26:50 50° 201° (SSW) 4,359 13.5 24.6°
Drops below altitude 10° 08:48:25 10° 134° (SE) 6,648 15.3 28.3°
Sets 08:53:20 0° 130° (SE) 7,428 15.4 29.2°
